Weather History for KSQI - January, 2013

Change the Weather History Date:

Wednesday, January 16, 2013

  Actual Average (KRFD) Record (KRFD)
Temperature  
Mean Temperature 22 °F 21 °F  
Max Temperature 35 °F 29 °F 53 °F (1933)
Min Temperature 8 °F 13 °F -25 °F (2009)
Degree Days  
Heating Degree Days 44 44  
Month to date heating degree days 698  
Since 1 July heating degree days 3259  
Cooling Degree Days 0 0  
Month to date cooling degree days 0  
Year to date cooling degree days 0  
Moisture  
Dew Point 18 °F    
Average Humidity 72    
Maximum Humidity 85    
Minimum Humidity 56    
Precipitation  
Precipitation 0.00 in 0.05 in 0.85 in (1935)
Month to date precipitation 0.76  
Year to date precipitation 0.76  
Snow  
Snow 0.00 in 0.30 in 9.50 in (1924)
Month to date snowfall 5.4  
Since 1 July snowfall 18.5  
Snow Depth -    
Sea Level Pressure  
Sea Level Pressure 29.98 in    
Wind  
Wind Speed 4 mph (WSW)    
Max Wind Speed 17 mph    
Max Gust Speed 51 mph    
Visibility 10 miles    
Events      
T = Trace of Precipitation, MM = Missing Value Source: NWS Daily Summary

Daily Weather History Graph

Daily Weather History Graph

Search for Another Location

Airport or City:

Trip Planner

Search our weather history database for the weather conditions in past years. The results will help you decide how hot, cold, wet, or windy it might be!

Date:

Astronomy

Jan. 16, 2013 Rise Set
Actual Time 7:22 AM CST 4:54 PM CST
Civil Twilight 6:52 AM CST 5:25 PM CST
Nautical Twilight 6:18 AM CST 5:59 PM CST
Astronomical Twilight 5:44 AM CST 6:32 PM CST
Moon 9:53 AM CST (1/16) 10:52 PM CST (1/16)
Length of Visible Light 10h 32m
Length of Day
9h 31m
Waxing Crescent, 28% of the Moon is Illuminated
Jan 16
Waxing Crescent
Jan 18
First Quarter
Jan 26
Full
Feb 3
Last Quarter
Feb 10
New

Hourly Weather History & Observations

Time (CST) Temp. Windchill Dew Point Humidity Pressure Visibility Wind Dir Wind Speed Gust Speed Precip Events Conditions
12:15 AM 10.4 °F - 6.8 °F 85% 30.11 in 10.0 mi Calm Calm - N/A   Clear
12:36 AM 10.4 °F - 6.8 °F 85% 30.10 in - Calm Calm - N/A   Unknown
12:55 AM 10.4 °F - 3.2 °F 73% 30.10 in 10.0 mi Calm Calm - N/A   Clear
1:15 AM 8.6 °F - 1.4 °F 73% 30.09 in 10.0 mi Calm Calm - N/A   Clear
1:35 AM 8.6 °F - 5.0 °F 85% 30.08 in 10.0 mi Calm Calm - N/A   Clear
1:55 AM 10.4 °F - 6.8 °F 85% 30.08 in 10.0 mi Calm Calm - N/A   Clear
2:15 AM 14.0 °F - 8.6 °F 79% 30.08 in 10.0 mi Calm Calm - N/A   Clear
2:35 AM 14.0 °F - 8.6 °F 79% 30.08 in 10.0 mi Calm Calm - N/A   Clear
2:55 AM 12.2 °F - 8.6 °F 85% 30.07 in 10.0 mi Calm Calm - N/A   Clear
3:15 AM 14.0 °F - 8.6 °F 79% 30.06 in 10.0 mi Calm Calm - N/A   Clear
3:35 AM 14.0 °F - 8.6 °F 79% 30.05 in 10.0 mi Calm Calm - N/A   Clear
3:55 AM 14.0 °F 8.2 °F 8.6 °F 79% 30.04 in 10.0 mi SW 3.5 mph - N/A   Clear
4:15 AM 14.0 °F - 8.6 °F 79% 30.02 in 10.0 mi Calm Calm - N/A   Clear
4:35 AM 14.0 °F 8.2 °F 8.6 °F 79% 30.01 in 10.0 mi SW 3.5 mph - N/A   Clear
4:55 AM 15.8 °F 8.6 °F 8.6 °F 73% 30.01 in 10.0 mi SW 4.6 mph - N/A   Clear
5:15 AM 15.8 °F 7.2 °F 8.6 °F 73% 30.01 in 10.0 mi WSW 5.8 mph - N/A   Clear
5:35 AM 15.8 °F 7.2 °F 6.8 °F 68% 30.00 in 10.0 mi WSW 5.8 mph - N/A   Clear
5:55 AM 15.8 °F 10.2 °F 6.8 °F 68% 29.99 in 10.0 mi WSW 3.5 mph - N/A   Clear
6:35 AM 15.8 °F 8.6 °F 8.6 °F 73% 29.97 in 10.0 mi SSW 4.6 mph - N/A   Clear
6:55 AM 15.8 °F 8.6 °F 6.8 °F 68% 29.96 in 10.0 mi SSW 4.6 mph - N/A   Clear
7:15 AM 15.8 °F 8.6 °F 8.6 °F 73% 29.96 in 10.0 mi SW 4.6 mph - N/A   Clear
7:35 AM 17.6 °F 10.7 °F 8.6 °F 68% 29.96 in 10.0 mi SW 4.6 mph - N/A   Clear
7:55 AM 17.6 °F 9.3 °F 8.6 °F 68% 29.96 in 10.0 mi SW 5.8 mph - N/A   Clear
8:15 AM 19.4 °F 10.4 °F 10.4 °F 68% 29.97 in 10.0 mi SW 6.9 mph - N/A   Clear
8:35 AM 19.4 °F 10.4 °F 10.4 °F 68% 29.96 in 10.0 mi SW 6.9 mph 50.6 mph N/A   Clear
8:55 AM 21.2 °F 10.9 °F 12.2 °F 68% 29.95 in 10.0 mi SW 9.2 mph - N/A   Clear
9:15 AM 24.8 °F 16.9 °F 12.2 °F 59% 29.94 in 10.0 mi WSW 6.9 mph - N/A   Clear
9:35 AM 24.8 °F 16.1 °F 14.0 °F 64% 29.93 in 10.0 mi SW 8.1 mph - N/A   Clear
9:55 AM 26.6 °F 18.2 °F 15.8 °F 64% 29.93 in 10.0 mi SW 8.1 mph - N/A   Clear
10:15 AM 28.4 °F 19.1 °F 15.8 °F 59% 29.93 in 10.0 mi WSW 10.4 mph 16.1 mph N/A   Clear
10:35 AM 30.2 °F 21.9 °F 17.6 °F 60% 29.91 in 10.0 mi WSW 9.2 mph 17.3 mph N/A   Clear
10:55 AM 30.2 °F 20.8 °F 19.4 °F 64% 29.90 in 10.0 mi SW 11.5 mph 17.3 mph N/A   Clear
11:15 AM 32.0 °F 23.6 °F 19.4 °F 60% 29.89 in 10.0 mi SW 10.4 mph 18.4 mph N/A   Clear
11:35 AM 33.8 °F 25.3 °F 21.2 °F 60% 29.88 in 10.0 mi WSW 11.5 mph 19.6 mph N/A   Clear
11:55 AM 33.8 °F 24.8 °F 21.2 °F 60% 29.88 in 10.0 mi WSW 12.7 mph 18.4 mph N/A   Partly Cloudy
12:15 PM 35.6 °F 25.5 °F 21.2 °F 56% 29.86 in 10.0 mi WSW 17.3 mph 23.0 mph N/A   Partly Cloudy
12:35 PM 35.6 °F 25.9 °F 21.2 °F 56% 29.85 in 10.0 mi WSW 16.1 mph 21.9 mph N/A   Clear
12:55 PM 33.8 °F 24.3 °F 21.2 °F 60% 29.86 in 10.0 mi WSW 13.8 mph 23.0 mph N/A   Mostly Cloudy
1:15 PM 33.8 °F 24.8 °F 21.2 °F 60% 29.86 in 10.0 mi WSW 12.7 mph 20.7 mph N/A   Overcast
1:35 PM 33.8 °F 25.8 °F 23.0 °F 65% 29.86 in 10.0 mi WSW 10.4 mph - N/A   Overcast
2:15 PM 35.6 °F 25.9 °F 23.0 °F 60% 29.86 in 10.0 mi WSW 16.1 mph 20.7 mph N/A   Overcast
2:35 PM 35.6 °F 28.0 °F 24.8 °F 65% 29.87 in 10.0 mi WSW 10.4 mph - N/A   Overcast
2:55 PM 35.6 °F 28.6 °F 24.8 °F 65% 29.87 in 10.0 mi WSW 9.2 mph - N/A   Overcast
3:15 PM 35.6 °F 27.5 °F 24.8 °F 65% 29.88 in 10.0 mi WSW 11.5 mph 17.3 mph N/A   Overcast
3:35 PM 35.6 °F 28.0 °F 26.6 °F 70% 29.89 in 10.0 mi WSW 10.4 mph 16.1 mph N/A   Overcast
3:55 PM 35.6 °F 29.2 °F 26.6 °F 70% 29.91 in 10.0 mi WSW 8.1 mph - N/A   Overcast
4:15 PM 35.6 °F 28.6 °F 26.6 °F 70% 29.92 in 10.0 mi WSW 9.2 mph - N/A   Overcast
4:35 PM 35.6 °F 28.6 °F 26.6 °F 70% 29.93 in 10.0 mi WSW 9.2 mph - N/A   Overcast
4:55 PM 33.8 °F 27.0 °F 26.6 °F 75% 29.93 in 10.0 mi SW 8.1 mph - N/A   Overcast
5:15 PM 33.8 °F 27.7 °F 26.6 °F 75% 29.94 in 10.0 mi WSW 6.9 mph - N/A   Overcast
5:55 PM 32.0 °F 28.7 °F 24.8 °F 75% 29.95 in 10.0 mi SW 3.5 mph - N/A   Partly Cloudy
6:15 PM 30.2 °F 24.3 °F 24.8 °F 80% 29.96 in 10.0 mi SW 5.8 mph - N/A   Clear
6:35 PM 30.2 °F - 24.8 °F 80% 29.97 in 10.0 mi Calm Calm - N/A   Scattered Clouds
6:55 PM 30.2 °F - 24.8 °F 80% 29.98 in - Calm Calm - N/A   Overcast
7:15 PM 32.0 °F - 26.6 °F 80% 29.99 in - Calm Calm - N/A   Overcast
7:35 PM 32.0 °F 28.7 °F 26.6 °F 80% 30.00 in - SW 3.5 mph - N/A   Overcast
7:55 PM 33.8 °F 29.6 °F 26.6 °F 75% 30.00 in 10.0 mi WSW 4.6 mph - N/A   Overcast
8:15 PM 33.8 °F 28.6 °F 28.4 °F 81% 30.01 in 10.0 mi WSW 5.8 mph - N/A   Overcast
8:35 PM 33.8 °F 29.6 °F 28.4 °F 81% 30.02 in 10.0 mi SW 4.6 mph - N/A   Overcast
8:55 PM 33.8 °F 30.8 °F 28.4 °F 81% 30.02 in 10.0 mi WSW 3.5 mph - N/A   Overcast
9:15 PM 33.8 °F 28.6 °F 28.4 °F 81% 30.02 in 10.0 mi West 5.8 mph - N/A   Overcast
9:35 PM 33.8 °F 28.6 °F 28.4 °F 81% 30.03 in 10.0 mi WSW 5.8 mph - N/A   Overcast
9:55 PM 33.8 °F 29.6 °F 28.4 °F 81% 30.03 in 10.0 mi WSW 4.6 mph - N/A   Overcast
10:15 PM 33.8 °F 29.6 °F 28.4 °F 81% 30.03 in 10.0 mi WSW 4.6 mph - N/A   Overcast
10:35 PM 33.8 °F 30.8 °F 28.4 °F 81% 30.02 in 10.0 mi SW 3.5 mph - N/A   Overcast
10:55 PM 33.8 °F 28.6 °F 28.4 °F 81% 30.03 in 10.0 mi West 5.8 mph - N/A   Overcast
11:15 PM 33.8 °F 27.7 °F 28.4 °F 81% 30.05 in 10.0 mi WNW 6.9 mph - N/A   Overcast
11:35 PM 35.6 °F 28.0 °F 28.4 °F 75% 30.07 in 10.0 mi NW 10.4 mph - N/A   Overcast
11:55 PM 35.6 °F 30.7 °F 28.4 °F 75% 30.08 in 10.0 mi NW 5.8 mph - N/A   Overcast